Location: Mahannah Oil Field
(37.4664°N, 96.6003°W)
Time: 01:58:23
(UTC+00:00)

A-11 Canister half - Pass Details

Date: 27 January 2021
Orbit: 1524 x 1684 km, 47.3° (Epoch: 25 February)

Event Time Altitude Azimuth Distance (km) Brightness Sun altitude
Rises 01:49:44 0° 301° (WNW) 4,743 12.4 -24.9°
Reaches altitude 10° 01:52:46 10° 302° (WNW) 3,777 11.7 -25.5°
Maximum altitude 02:02:27 82° 31° (NNE) 1,631 8.9 -27.4°
Enters shadow 02:05:57 47° 113° (ESE) 2,064 9.2 -28.1°
Drops below altitude 10° 02:12:26 10° 119° (ESE) 3,894 - -29.4°
Sets 02:15:37 0° 121° (ESE) 4,896 - -30.0°
